Hourly Weather Rusanovo

Today, 11 April, Sunday

Time Temperature Precipitation Wind Pressure Humidity
00:00 +6°C° 0 mm 1 mps 751 mmHg 90%
01:00 +4°C° 0 mm 0 mps 751 mmHg 91%
02:00 +4°C° 0 mm 0 mps 751 mmHg 91%
03:00 +4°C° 0.1 mm 0 mps 751 mmHg 92%
04:00 +5°C° 0.1 mm 1 mps 752 mmHg 92%
05:00 +5°C° 0.1 mm 1 mps 752 mmHg 93%
06:00 +5°C° 0 mm 1 mps 752 mmHg 92%
07:00 +6°C° 0 mm 1 mps 753 mmHg 92%
08:00 +6°C° 0 mm 1 mps 753 mmHg 91%
09:00 +7°C° 0 mm 1 mps 753 mmHg 90%
10:00 +7°C° 0 mm 1 mps 754 mmHg 90%
11:00 +7°C° 0 mm 1 mps 754 mmHg 89%
12:00 +8°C° 0 mm 1 mps 754 mmHg 89%
13:00 +8°C° 0 mm 1 mps 754 mmHg 88%
14:00 +8°C° 0 mm 1 mps 755 mmHg 88%
15:00 +8°C° 0 mm 1 mps 755 mmHg 88%
16:00 +9°C° 0 mm 1 mps 755 mmHg 87%
17:00 +9°C° 0 mm 1 mps 755 mmHg 86%
18:00 +7°C° 0 mm 2 mps 755 mmHg 87%
19:00 +7°C° 0 mm 2 mps 755 mmHg 89%
20:00 +7°C° 0 mm 2 mps 755 mmHg 90%
21:00 +6°C° 0 mm 2 mps 755 mmHg 89%
22:00 +6°C° 0 mm 2 mps 755 mmHg 89%
23:00 +6°C° 0 mm 2 mps 755 mmHg 89%

Tomorrow, 12 April, Monday

Time Temperature Precipitation Wind Pressure Humidity
00:00 +6°C° 0 mm 2 mps 756 mmHg 89%
01:00 +5°C° 0 mm 2 mps 756 mmHg 89%
02:00 +5°C° 0 mm 2 mps 756 mmHg 89%
03:00 +5°C° 0 mm 2 mps 756 mmHg 88%
04:00 +5°C° 0 mm 2 mps 756 mmHg 88%
05:00 +4°C° 0 mm 2 mps 756 mmHg 88%
06:00 +5°C° 0 mm 3 mps 756 mmHg 82%
07:00 +7°C° 0 mm 3 mps 756 mmHg 76%
08:00 +9°C° 0 mm 3 mps 756 mmHg 70%
09:00 +10°C° 0 mm 4 mps 755 mmHg 63%
10:00 +12°C° 0 mm 4 mps 755 mmHg 57%
11:00 +13°C° 0 mm 4 mps 755 mmHg 50%
12:00 +14°C° 0 mm 4 mps 754 mmHg 46%
13:00 +15°C° 0 mm 4 mps 754 mmHg 43%
14:00 +15°C° 0 mm 4 mps 753 mmHg 40%
15:00 +15°C° 0 mm 4 mps 753 mmHg 41%
16:00 +16°C° 0 mm 3 mps 752 mmHg 43%
17:00 +14°C° 0 mm 3 mps 752 mmHg 45%
18:00 +12°C° 0 mm 3 mps 752 mmHg 52%
19:00 +12°C° 0 mm 2 mps 752 mmHg 59%
20:00 +9°C° 0 mm 2 mps 752 mmHg 66%
21:00 +8°C° 0 mm 2 mps 752 mmHg 71%
22:00 +7°C° 0 mm 2 mps 751 mmHg 75%
23:00 +7°C° 0 mm 2 mps 751 mmHg 80%

Day after tomorrow, 13 April, Tuesday

Time Temperature Precipitation Wind Pressure Humidity
00:00 +7°C° 0 mm 2 mps 751 mmHg 84%
01:00 +6°C° 0 mm 2 mps 751 mmHg 88%
02:00 +6°C° 0 mm 2 mps 751 mmHg 92%
03:00 +6°C° 0 mm 2 mps 751 mmHg 93%
04:00 +5°C° 0 mm 2 mps 751 mmHg 94%
05:00 +5°C° 0 mm 2 mps 750 mmHg 96%
06:00 +6°C° 0 mm 2 mps 750 mmHg 90%
07:00 +8°C° 0 mm 2 mps 750 mmHg 84%
08:00 +9°C° 0 mm 2 mps 750 mmHg 78%
09:00 +12°C° 0 mm 2 mps 750 mmHg 68%
10:00 +13°C° 0 mm 3 mps 750 mmHg 58%
11:00 +16°C° 0 mm 3 mps 750 mmHg 49%
12:00 +16°C° 0 mm 3 mps 750 mmHg 46%
13:00 +17°C° 0 mm 3 mps 749 mmHg 43%
14:00 +18°C° 0 mm 2 mps 749 mmHg 39%
15:00 +17°C° 0 mm 2 mps 749 mmHg 43%
16:00 +17°C° 0 mm 2 mps 749 mmHg 46%
17:00 +18°C° 0 mm 1 mps 749 mmHg 49%
18:00 +15°C° 0 mm 1 mps 749 mmHg 60%
19:00 +13°C° 0 mm 1 mps 749 mmHg 71%
20:00 +11°C° 0 mm 1 mps 749 mmHg 82%
21:00 +9°C° 0 mm 2 mps 749 mmHg 85%
22:00 +8°C° 0 mm 2 mps 749 mmHg 88%
23:00 +8°C° 0 mm 3 mps 749 mmHg 91%

14 April, Wednesday

Time Temperature Precipitation Wind Pressure Humidity
00:00 +7°C° 0 mm 3 mps 749 mmHg 90%
01:00 +7°C° 0 mm 3 mps 749 mmHg 89%
02:00 +5°C° 0 mm 3 mps 749 mmHg 89%
03:00 +5°C° 0.2 mm 4 mps 749 mmHg 89%
04:00 +5°C° 0.2 mm 4 mps 749 mmHg 90%
05:00 +4°C° 0.2 mm 4 mps 749 mmHg 90%
06:00 +4°C° 0.6 mm 4 mps 749 mmHg 91%
07:00 +4°C° 0.6 mm 4 mps 750 mmHg 91%
08:00 +4°C° 0.6 mm 4 mps 750 mmHg 91%
09:00 +4°C° 0.8 mm 4 mps 750 mmHg 90%
10:00 +4°C° 0.8 mm 4 mps 750 mmHg 90%
11:00 +4°C° 0.8 mm 4 mps 750 mmHg 89%
12:00 +4°C° 0.7 mm 4 mps 750 mmHg 90%
13:00 +3°C° 0.7 mm 4 mps 750 mmHg 90%
14:00 +3°C° 0.7 mm 4 mps 750 mmHg 91%
15:00 +2°C° 0.3 mm 5 mps 750 mmHg 91%
16:00 +2°C° 0.3 mm 5 mps 750 mmHg 90%
17:00 +1°C° 0.3 mm 5 mps 750 mmHg 90%
18:00 +1°C° 0.1 mm 5 mps 750 mmHg 90%
19:00 +1°C° 0.1 mm 5 mps 751 mmHg 90%
20:00 +1°C° 0.1 mm 4 mps 751 mmHg 90%
21:00 +1°C° 0.1 mm 5 mps 751 mmHg 90%
22:00 +1°C° 0.1 mm 5 mps 751 mmHg 90%
23:00 +1°C° 0.1 mm 5 mps 751 mmHg 90%

15 April, Thursday

Time Temperature Precipitation Wind Pressure Humidity
00:00 +1°C° 0 mm 5 mps 750 mmHg 90%
01:00 +1°C° 0 mm 5 mps 750 mmHg 90%
02:00 +1°C° 0 mm 5 mps 750 mmHg 91%
03:00 +1°C° 0.3 mm 5 mps 750 mmHg 91%
04:00 +1°C° 0.3 mm 5 mps 750 mmHg 91%
05:00 0°C° 0.3 mm 4 mps 750 mmHg 90%
06:00 0°C° 0.3 mm 5 mps 751 mmHg 91%
07:00 0°C° 0.3 mm 5 mps 751 mmHg 91%
08:00 0°C° 0.3 mm 5 mps 751 mmHg 91%
09:00 0°C° 0.1 mm 5 mps 751 mmHg 90%
10:00 0°C° 0.1 mm 5 mps 751 mmHg 89%
11:00 +1°C° 0.1 mm 5 mps 751 mmHg 88%
12:00 +1°C° 0.1 mm 5 mps 751 mmHg 87%
13:00 +1°C° 0.1 mm 5 mps 752 mmHg 87%
14:00 +2°C° 0.1 mm 5 mps 752 mmHg 86%
15:00 +2°C° 0 mm 5 mps 752 mmHg 84%
16:00 +3°C° 0 mm 4 mps 752 mmHg 82%
17:00 +4°C° 0 mm 4 mps 752 mmHg 81%
18:00 +4°C° 0 mm 4 mps 752 mmHg 78%
19:00 +3°C° 0 mm 4 mps 752 mmHg 76%
20:00 +3°C° 0 mm 4 mps 753 mmHg 74%
21:00 +3°C° 0 mm 4 mps 753 mmHg 74%
22:00 +1°C° 0 mm 4 mps 753 mmHg 74%
23:00 0°C° 0 mm 4 mps 753 mmHg 74%

16 April, Friday

Time Temperature Precipitation Wind Pressure Humidity
00:00 0°C° 0 mm 4 mps 754 mmHg 76%
01:00 -1°C° 0 mm 5 mps 754 mmHg 78%
02:00 -1°C° 0 mm 5 mps 754 mmHg 79%
03:00 -1°C° 0 mm 5 mps 754 mmHg 80%
04:00 -2°C° 0 mm 5 mps 754 mmHg 81%
05:00 -2°C° 0 mm 5 mps 755 mmHg 82%
06:00 -1°C° 0 mm 5 mps 755 mmHg 79%
07:00 0°C° 0 mm 5 mps 755 mmHg 76%
08:00 +1°C° 0 mm 5 mps 756 mmHg 73%
09:00 +2°C° 0 mm 5 mps 756 mmHg 65%
10:00 +4°C° 0 mm 6 mps 756 mmHg 58%
11:00 +5°C° 0 mm 6 mps 757 mmHg 51%
12:00 +5°C° 0 mm 6 mps 757 mmHg 47%
13:00 +7°C° 0 mm 6 mps 757 mmHg 42%
14:00 +7°C° 0 mm 6 mps 757 mmHg 37%
15:00 +7°C° 0 mm 5 mps 757 mmHg 39%
16:00 +7°C° 0 mm 5 mps 757 mmHg 41%
17:00 +7°C° 0 mm 4 mps 757 mmHg 42%
18:00 +5°C° 0 mm 4 mps 758 mmHg 48%
19:00 +4°C° 0 mm 3 mps 758 mmHg 55%
20:00 +2°C° 0 mm 3 mps 759 mmHg 61%
21:00 +3°C° 0 mm 2 mps 759 mmHg 65%
22:00 +2°C° 0 mm 2 mps 759 mmHg 69%
23:00 +1°C° 0 mm 2 mps 760 mmHg 73%
Show more